z/d,0,0,50,50,100,100,200,200,300,300,400,400,500,500,750,750,1000,1000,2000,2000,3000,3000,4000,4000,4700,4700
2016.10.27-01:00,1.18,86.57,1.13,75.65,.93,85.30,.90,79.71,.90,80.63,.83,76.25,.77,73.46,.58,81.71,.36,75.04,.21,41.47,.16,26.00,.23,29.94,.03,90.00
2016.10.27-02:00,1.11,87.55,1.12,76.91,.89,84.14,.89,79.86,.88,79.99,.82,75.62,.77,73.25,.55,84.47,.34,77.36,.21,45.11,.15,23.71,.22,26.04,.02,90.00
2016.10.27-03:00,1.05,90.15,1.09,79.41,.86,83.37,.88,79.87,.87,78.90,.81,74.27,.78,72.60,.52,85.63,.33,78.63,.22,50.32,.16,24.76,.23,24.11,.02,90.00
2016.10.27-04:00,.97,96.78,1.05,82.82,.83,82.68,.87,79.23,.88,77.37,.83,72.54,.80,72.13,.50,85.66,.33,78.78,.23,54.62,.17,28.49,.24,25.34,.03,90.00
2016.10.27-05:00,.89,103.95,1.00,86.86,.82,81.89,.88,77.69,.90,75.45,.86,70.72,.83,72.06,.48,84.80,.32,77.84,.25,57.31,.18,33.25,.26,28.83,.04,90.00
2016.10.27-06:00,.84,109.78,.97,90.99,.83,81.16,.91,75.72,.94,73.55,.91,69.26,.85,72.34,.46,82.89,.32,75.54,.27,59.03,.20,37.71,.28,32.88,.05,90.00
2016.10.27-07:00,.81,116.16,.96,94.55,.86,80.51,.95,74.05,.99,72.17,.96,68.58,.88,72.87,.45,79.35,.33,71.25,.28,60.19,.22,41.10,.29,36.11,.06,90.00
2016.10.27-08:00,.78,120.23,.94,96.71,.89,79.56,1.00,73.11,1.03,71.75,1.01,69.04,.89,73.80,.44,74.73,.34,65.87,.29,61.22,.23,43.05,.30,37.74,.06,90.00
2016.10.27-09:00,.71,118.79,.89,96.40,.89,77.71,1.03,72.91,1.06,72.57,1.04,70.80,.90,75.54,.45,71.09,.36,61.84,.29,62.21,.22,43.07,.30,37.34,.06,90.00
2016.10.27-10:00,.59,113.15,.81,92.37,.88,74.30,1.03,72.95,1.07,74.12,1.05,73.26,.90,77.83,.47,69.73,.39,60.22,.27,62.76,.21,41.17,.29,35.47,.06,90.00
2016.10.27-11:00,.48,105.57,.75,84.71,.88,70.05,1.02,73.20,1.05,75.87,1.04,75.89,.88,80.24,.48,70.39,.40,60.66,.25,62.39,.19,38.11,.28,33.30,.06,90.00
2016.10.27-12:00,.46,85.83,.73,75.66,.90,66.37,1.01,73.56,1.02,77.14,1.01,78.05,.85,82.04,.48,71.63,.41,62.18,.22,60.79,.17,34.58,.26,31.44,.05,90.00
2016.10.27-13:00,.49,74.49,.76,69.13,.94,64.79,1.00,74.17,.99,77.65,.98,79.47,.80,82.79,.47,72.41,.41,64.36,.19,58.26,.15,30.41,.24,29.29,.05,90.00
2016.10.27-14:00,.53,68.06,.81,66.67,.99,65.64,1.00,75.17,.96,77.56,.94,80.20,.76,82.54,.47,72.62,.41,67.50,.17,56.45,.14,26.41,.23,26.70,.04,90.00
2016.10.27-15:00,.56,64.69,.85,66.68,1.03,68.00,1.00,76.40,.95,77.15,.91,80.34,.73,81.57,.47,72.38,.41,71.31,.16,56.45,.14,23.43,.22,23.81,.03,90.00
2016.10.27-16:00,.61,60.80,.87,67.03,1.05,70.75,1.00,77.39,.95,76.50,.89,79.87,.71,79.96,.47,71.52,.41,74.77,.17,57.80,.14,24.56,.23,23.23,.03,90.00
2016.10.27-17:00,.67,55.99,.88,66.96,1.08,73.50,1.01,77.97,.98,76.01,.90,79.07,.72,78.13,.48,70.21,.40,77.27,.19,59.22,.16,29.52,.25,25.81,.04,90.00
2016.10.27-18:00,.76,53.75,.90,67.35,1.11,76.44,1.04,78.37,1.03,76.14,.92,78.28,.74,76.33,.49,68.45,.38,78.33,.21,59.86,.18,34.75,.27,29.48,.04,90.00
2016.10.27-19:00,.84,55.63,.95,69.07,1.14,79.50,1.07,78.75,1.08,76.95,.95,77.62,.77,74.58,.51,66.41,.37,77.67,.23,59.89,.20,38.11,.29,32.54,.05,90.00
2016.10.27-20:00,.87,59.44,1.00,71.94,1.15,82.33,1.09,79.20,1.11,78.31,.97,77.25,.80,73.15,.54,64.93,.37,75.55,.25,59.24,.21,39.72,.31,34.89,.05,90.00
2016.10.27-21:00,.93,64.72,1.06,75.36,1.15,84.71,1.09,79.88,1.11,80.07,.97,77.42,.82,72.52,.57,64.97,.37,72.95,.25,57.38,.21,39.38,.31,36.22,.05,90.00
2016.10.27-22:00,.99,69.46,1.11,78.38,1.12,86.12,1.08,80.59,1.09,81.73,.96,77.83,.83,72.53,.60,66.73,.39,71.07,.25,54.54,.21,37.51,.31,36.68,.05,90.00
2016.10.27-23:00,1.03,72.30,1.13,80.38,1.08,86.35,1.05,81.21,1.04,82.87,.94,78.19,.82,72.87,.62,69.91,.39,70.61,.24,51.41,.20,34.39,.29,36.23,.05,90.00
2016.10.27-24:00,1.08,73.82,1.13,81.33,1.05,85.68,1.02,81.65,.98,83.16,.90,78.35,.81,73.30,.61,73.99,.39,71.34,.22,48.73,.18,30.43,.27,34.81,.04,90.00
2016.10.28-01:00,1.11,75.25,1.13,81.73,1.02,84.76,.99,81.67,.93,82.33,.87,78.10,.78,73.53,.59,78.42,.37,72.73,.21,47.52,.17,26.55,.24,32.50,.03,90.00
2016.10.28-02:00,1.12,77.70,1.12,82.39,1.02,84.37,.97,81.16,.89,80.37,.84,77.28,.77,73.31,.56,82.50,.35,74.27,.20,48.70,.16,24.17,.22,29.73,.03,90.00
2016.10.28-03:00,1.12,80.67,1.10,83.82,1.02,84.87,.96,80.32,.87,77.81,.83,76.12,.76,72.76,.52,85.54,.33,75.35,.19,51.67,.15,24.33,.21,27.26,.03,90.00
2016.10.28-04:00,1.09,84.80,1.06,86.07,1.00,86.05,.96,79.38,.88,75.26,.83,74.97,.77,72.32,.50,87.22,.32,75.67,.20,55.28,.16,27.54,.21,26.43,.03,90.00
2016.10.28-05:00,1.00,89.39,1.00,89.05,.97,87.39,.96,78.31,.91,72.89,.85,73.68,.80,72.09,.48,87.09,.32,74.83,.21,58.60,.17,33.20,.23,27.96,.03,90.00
2016.10.28-06:00,.97,93.89,.96,92.63,.94,88.52,.99,77.21,.95,70.99,.89,72.31,.84,72.11,.46,85.08,.32,72.90,.23,61.07,.18,38.92,.25,30.63,.04,90.00
2016.10.28-07:00,.93,97.85,.95,96.24,.92,89.08,1.02,76.19,1.02,69.81,.94,71.21,.88,72.33,.45,81.22,.33,69.88,.25,62.32,.20,43.28,.27,33.34,.05,90.00
2016.10.28-08:00,.92,101.35,.96,99.22,.93,89.08,1.07,75.56,1.08,69.62,1.00,70.85,.92,72.89,.44,76.31,.34,66.15,.26,62.44,.21,46.04,.29,35.53,.06,90.00
2016.10.28-09:00,.90,102.31,.97,100.68,.94,88.46,1.12,75.54,1.14,70.47,1.04,71.46,.94,74.08,.45,72.04,.36,62.83,.27,61.65,.21,46.66,.30,36.37,.06,90.00
2016.10.28-10:00,.83,96.89,.97,100.31,.94,87.17,1.15,76.02,1.18,71.97,1.07,72.71,.95,75.77,.47,69.48,.38,60.90,.26,60.62,.20,45.01,.30,35.63,.06,90.00
2016.10.28-11:00,.76,88.62,.93,98.20,.94,85.36,1.15,76.68,1.18,73.57,1.07,74.09,.93,77.67,.48,68.46,.41,60.57,.25,59.82,.18,41.12,.28,33.58,.06,90.00
2016.10.28-12:00,.72,76.02,.88,94.47,.93,83.36,1.15,77.43,1.17,75.04,1.05,75.53,.90,79.60,.48,68.33,.42,61.55,.22,59.03,.15,34.84,.27,30.68,.05,90.00
2016.10.28-13:00,.87,63.85,.85,89.62,.93,81.75,1.14,78.34,1.15,76.42,1.03,77.08,.86,81.47,.47,68.41,.42,63.40,.19,58.09,.13,26.61,.25,27.50,.04,90.00
2016.10.28-14:00,.99,63.17,.84,84.59,.95,80.89,1.13,79.24,1.14,77.60,1.01,78.61,.82,82.99,.46,68.44,.42,66.05,.17,57.40,.12,18.42,.23,24.69,.04,90.00
2016.10.28-15:00,1.06,63.42,.84,80.94,.97,81.24,1.14,80.26,1.14,78.67,1.00,79.88,.79,83.79,.46,68.59,.41,69.59,.16,57.45,.12,12.49,.22,22.22,.03,90.00
2016.10.28-16:00,1.15,62.90,.85,79.20,.99,82.61,1.15,81.43,1.14,79.59,.99,80.55,.77,83.53,.47,68.77,.41,73.40,.16,58.57,.13,12.35,.22,21.53,.03,90.00
2016.10.28-17:00,1.25,64.14,.86,78.76,1.01,84.22,1.17,82.69,1.16,80.40,.99,80.65,.77,82.40,.48,68.62,.40,76.33,.17,59.78,.15,18.28,.23,24.01,.03,90.00
2016.10.28-18:00,1.36,67.45,.89,78.87,1.02,85.28,1.19,83.79,1.18,81.22,1.00,80.46,.77,80.79,.50,68.08,.38,77.85,.20,60.12,.17,26.41,.25,28.62,.04,90.00
2016.10.28-19:00,1.47,74.36,.94,79.62,1.04,85.75,1.21,84.62,1.20,82.19,1.02,80.22,.79,79.02,.52,67.45,.36,77.83,.22,59.55,.20,33.18,.27,33.20,.04,90.00
2016.10.28-20:00,1.51,81.79,1.00,81.30,1.06,85.93,1.22,85.19,1.21,83.25,1.04,79.96,.81,77.29,.55,66.99,.36,76.05,.24,58.55,.23,37.84,.30,36.60,.05,90.00
2016.10.28-21:00,1.53,87.79,1.06,83.66,1.08,86.06,1.22,85.59,1.20,84.28,1.04,79.79,.82,75.83,.59,66.98,.36,72.92,.25,57.39,.24,40.56,.31,38.47,.05,90.00
2016.10.28-22:00,1.57,92.25,1.10,85.93,1.09,86.25,1.20,85.91,1.17,85.12,1.03,79.83,.82,74.82,.61,67.86,.37,69.66,.25,55.99,.24,41.63,.32,38.89,.05,90.00
2016.10.28-23:00,1.59,95.78,1.11,87.43,1.09,86.33,1.17,85.98,1.12,85.51,1.00,79.96,.81,74.10,.63,69.88,.38,67.46,.25,54.28,.22,41.06,.31,37.87,.05,90.00
2016.10.28-24:00,1.57,99.69,1.10,87.99,1.09,86.22,1.14,85.64,1.06,85.20,.97,79.87,.79,73.34,.63,73.03,.39,66.82,.23,52.50,.20,38.84,.28,35.50,.04,90.00
2016.10.29-01:00,1.54,104.67,1.08,87.79,1.07,85.87,1.10,84.89,1.01,84.12,.92,79.28,.77,72.34,.61,76.87,.39,67.25,.22,50.95,.17,35.23,.26,32.31,.03,90.00
2016.10.29-02:00,1.44,109.15,1.07,87.17,1.07,85.38,1.08,83.94,.97,82.50,.89,78.16,.76,71.07,.58,80.72,.38,68.11,.20,50.36,.14,30.77,.23,28.89,.03,90.00
2016.10.29-03:00,1.30,112.80,1.05,86.43,1.06,85.05,1.06,83.12,.95,80.63,.87,76.63,.76,69.66,.54,83.84,.37,69.29,.19,51.84,.13,26.54,.21,25.65,.02,90.00
2016.10.29-04:00,1.15,116.58,1.03,85.67,1.06,84.90,1.06,82.56,.95,78.75,.87,74.95,.78,68.51,.50,85.59,.36,70.55,.19,55.60,.12,24.80,.21,23.67,.02,90.00
2016.10.29-05:00,1.00,120.91,.99,85.06,1.04,84.90,1.06,82.30,.97,77.26,.88,73.69,.82,68.37,.48,85.62,.35,71.14,.20,60.06,.13,27.22,.21,24.33,.03,90.00
2016.10.29-06:00,.84,124.56,.93,84.64,1.02,84.79,1.06,82.00,1.00,76.12,.91,72.90,.87,69.29,.46,83.70,.35,70.56,.21,63.56,.15,32.61,.23,27.53,.03,90.00
2016.10.29-07:00,.68,126.48,.88,84.33,1.00,84.60,1.07,81.38,1.04,75.18,.96,72.37,.92,70.85,.45,79.92,.36,68.76,.23,65.22,.17,38.03,.26,31.55,.04,90.00
2016.10.29-08:00,.57,126.29,.84,84.16,1.00,84.71,1.08,80.66,1.09,74.73,1.01,72.33,.97,72.83,.46,75.27,.37,66.50,.24,65.11,.19,41.55,.28,34.67,.05,90.00
2016.10.29-09:00,.48,122.42,.85,83.86,1.02,85.06,1.11,79.94,1.14,74.82,1.06,72.88,1.01,75.05,.48,70.97,.39,64.66,.25,63.90,.20,42.78,.29,36.14,.06,90.00
2016.10.29-10:00,.42,113.36,.87,82.62,1.04,84.93,1.13,78.94,1.17,75.19,1.09,73.80,1.03,77.31,.50,68.09,.40,63.92,.25,62.31,.20,42.06,.30,36.00,.06,90.00
2016.10.29-11:00,.39,98.24,.90,80.00,1.04,83.82,1.14,77.52,1.19,75.54,1.10,74.88,1.01,79.44,.52,67.04,.42,64.49,.23,60.77,.19,39.62,.29,34.54,.06,90.00
2016.10.29-12:00,.40,78.03,.92,76.37,1.03,81.93,1.14,76.13,1.18,75.95,1.09,76.22,.98,81.50,.53,67.62,.42,66.21,.21,59.08,.17,34.93,.27,31.87,.05,90.00
2016.10.29-13:00,.47,61.51,.94,72.14,1.02,79.70,1.14,75.20,1.17,76.57,1.07,77.86,.92,83.49,.53,69.43,.42,68.81,.18,57.04,.15,27.72,.25,28.36,.04,90.00
2016.10.29-14:00,.60,51.08,.96,68.02,1.02,77.65,1.14,74.94,1.16,77.45,1.04,79.65,.87,85.08,.51,71.53,.41,71.71,.16,54.72,.13,19.08,.24,24.96,.03,90.00
2016.10.29-15:00,.76,47.04,1.00,65.62,1.02,76.60,1.14,75.55,1.15,78.80,1.01,81.45,.82,85.85,.49,72.91,.39,74.42,.14,52.78,.12,11.68,.22,22.45,.03,90.00
2016.10.29-16:00,.89,48.46,1.04,65.54,1.03,76.68,1.16,76.99,1.16,80.64,.99,83.07,.78,85.56,.48,73.12,.37,76.70,.15,52.26,.12,9.71,.21,21.89,.03,90.00
2016.10.29-17:00,.98,51.71,1.06,66.62,1.03,77.28,1.17,78.96,1.17,82.85,.98,84.45,.77,84.57,.47,72.38,.36,77.92,.16,52.79,.13,14.70,.22,24.19,.03,90.00
2016.10.29-18:00,1.04,55.09,1.07,67.57,1.02,77.65,1.18,80.94,1.17,85.01,.98,85.44,.77,83.38,.48,71.17,.34,77.44,.19,53.90,.15,23.85,.23,29.04,.03,90.00
2016.10.29-19:00,1.09,58.78,1.07,68.34,1.01,77.57,1.18,82.48,1.18,86.73,.98,85.78,.79,82.12,.51,69.77,.34,75.01,.22,55.50,.18,32.28,.25,34.05,.04,90.00
2016.10.29-20:00,1.12,63.75,1.09,69.72,1.01,77.36,1.19,83.50,1.18,87.87,.99,85.53,.82,80.80,.55,68.46,.34,71.01,.25,57.44,.21,37.85,.28,37.40,.05,90.00
2016.10.29-21:00,1.15,69.66,1.11,71.90,1.02,77.14,1.19,83.92,1.16,88.41,.98,84.83,.84,79.35,.60,67.34,.36,66.24,.27,59.29,.23,41.24,.30,39.23,.05,90.00
2016.10.29-22:00,1.16,77.49,1.14,74.69,1.03,76.84,1.18,83.67,1.13,88.36,.97,83.76,.84,77.78,.63,66.79,.38,61.85,.27,60.44,.24,43.18,.31,40.05,.05,90.00
2016.10.29-23:00,1.15,87.03,1.14,77.76,1.03,76.31,1.15,82.66,1.09,87.64,.95,82.29,.83,76.16,.66,67.39,.40,59.15,.26,60.52,.24,43.72,.31,39.78,.05,90.00
2016.10.29-24:00,1.13,96.46,1.13,80.83,1.01,75.36,1.12,80.88,1.03,86.08,.92,80.33,.82,74.62,.66,69.78,.42,59.01,.24,59.51,.21,42.61,.29,38.06,.05,90.00
2016.10.30-01:00,1.09,103.93,1.09,83.55,1.00,73.79,1.09,78.66,.98,83.64,.88,77.95,.80,73.36,.65,74.10,.43,61.27,.22,57.59,.18,39.50,.26,34.63,.04,90.00
2016.10.30-02:00,1.01,108.90,1.04,85.42,1.00,71.76,1.08,76.68,.94,80.63,.86,75.53,.78,72.39,.62,79.44,.43,64.68,.20,55.47,.15,34.32,.23,29.64,.03,90.00
2016.10.30-03:00,.91,111.92,.97,85.91,1.01,69.75,1.08,75.49,.92,77.62,.86,73.59,.77,71.61,.57,84.26,.42,67.96,.18,54.76,.12,27.86,.21,24.03,.02,90.00
2016.10.30-04:00,.78,114.45,.90,84.89,1.02,68.23,1.08,75.23,.92,75.18,.87,72.61,.78,71.12,.52,87.24,.40,70.52,.18,56.64,.11,22.55,.20,19.73,.02,90.00
2016.10.30-05:00,.65,116.20,.81,82.38,1.03,67.40,1.09,75.76,.94,73.72,.90,72.81,.80,71.29,.48,87.59,.39,72.27,.18,60.31,.10,21.80,.20,18.93,.02,90.00
2016.10.30-06:00,.50,115.30,.72,78.18,1.04,67.15,1.09,76.76,.97,73.19,.93,73.90,.84,72.22,.45,85.30,.38,73.27,.18,63.92,.12,25.90,.22,21.86,.03,90.00
2016.10.30-07:00,.34,106.50,.65,71.70,1.04,67.14,1.09,77.76,1.00,73.11,.96,75.28,.88,73.62,.44,81.10,.38,73.44,.19,66.03,.14,31.65,.25,26.80,.04,90.00
2016.10.30-08:00,.25,80.61,.62,63.72,1.04,67.50,1.09,78.47,1.03,73.21,.99,76.65,.92,75.30,.45,76.19,.38,72.66,.21,66.01,.17,36.10,.28,31.67,.05,90.00
2016.10.30-09:00,.28,50.41,.64,57.35,1.06,68.56,1.09,78.79,1.07,73.51,1.02,78.04,.95,77.16,.48,71.77,.39,71.23,.22,64.08,.19,38.35,.30,35.27,.06,90.00
2016.10.30-10:00,.39,36.85,.71,54.12,1.09,69.97,1.09,78.41,1.10,73.84,1.03,79.32,.97,78.91,.51,68.38,.40,69.73,.22,61.18,.20,38.74,.30,37.33,.06,90.00
2016.10.30-11:00,.51,31.93,.80,52.49,1.10,71.04,1.08,77.14,1.11,74.01,1.02,80.40,.96,80.40,.54,66.43,.40,68.87,.22,58.31,.19,37.51,.29,37.70,.06,90.00
2016.10.30-12:00,.64,29.88,.88,51.14,1.10,71.58,1.05,75.25,1.10,74.08,.99,81.34,.93,81.68,.55,66.03,.40,68.95,.21,55.67,.18,34.49,.27,36.34,.05,90.00
2016.10.30-13:00,.78,30.33,.97,50.03,1.09,71.85,1.03,73.25,1.08,74.28,.94,82.23,.88,82.79,.56,67.06,.39,69.92,.19,53.03,.16,29.29,.25,33.36,.04,90.00
2016.10.30-14:00,.92,33.30,1.06,49.68,1.06,72.07,1.01,71.42,1.05,74.64,.90,82.80,.83,83.47,.54,68.96,.38,71.39,.16,50.56,.13,22.24,.23,29.46,.03,90.00
2016.10.30-15:00,1.05,38.60,1.13,51.06,1.02,72.52,1.00,70.00,1.03,75.14,.85,82.62,.78,83.20,.52,70.81,.36,72.65,.15,48.81,.12,15.13,.20,25.76,.03,90.00
2016.10.30-16:00,1.14,45.08,1.18,54.44,.98,73.32,1.00,69.33,1.02,75.96,.83,81.65,.74,81.89,.50,72.11,.34,73.50,.14,48.66,.11,11.36,.19,23.39,.02,90.00
2016.10.30-17:00,1.18,51.85,1.19,58.96,.94,74.25,1.01,69.61,1.03,77.19,.82,80.22,.74,79.97,.49,72.73,.33,73.78,.15,50.22,.11,13.64,.19,23.25,.02,90.00
2016.10.30-18:00,1.17,58.20,1.17,63.53,.91,74.92,1.03,70.70,1.05,78.83,.84,78.83,.75,78.20,.50,72.69,.33,73.13,.18,52.70,.13,20.79,.20,25.46,.02,90.00
2016.10.30-19:00,1.14,63.74,1.13,67.45,.87,74.84,1.06,72.10,1.07,80.53,.87,77.57,.79,76.84,.52,71.88,.33,71.29,.21,55.59,.16,29.05,.22,29.01,.03,90.00
2016.10.30-20:00,1.10,68.75,1.10,70.86,.85,74.05,1.08,73.49,1.09,81.99,.91,76.36,.83,75.80,.55,70.38,.35,68.24,.24,58.35,.19,35.72,.25,32.48,.03,90.00
2016.10.30-21:00,1.06,73.92,1.08,74.44,.85,73.12,1.10,74.78,1.10,83.01,.94,75.16,.86,74.90,.58,68.50,.36,64.33,.26,60.57,.22,40.39,.28,35.30,.04,90.00
2016.10.30-22:00,1.04,79.89,1.07,78.97,.86,72.49,1.11,75.76,1.09,83.35,.96,73.86,.89,73.91,.61,66.59,.38,60.20,.27,61.95,.24,43.51,.31,37.43,.05,90.00
2016.10.30-23:00,1.00,86.62,1.06,84.63,.87,71.89,1.09,76.08,1.05,82.74,.97,72.48,.90,72.93,.64,65.55,.41,57.30,.27,62.39,.24,45.13,.32,38.53,.05,90.00
2016.10.30-24:00,.94,93.21,1.03,90.65,.85,70.49,1.06,75.33,.99,80.91,.96,71.13,.89,72.32,.66,66.43,.43,57.12,.25,61.93,.23,45.00,.31,38.03,.05,90.00
2016.10.31-01:00,.86,98.73,.96,96.15,.84,68.14,1.02,73.61,.93,78.01,.95,70.24,.88,72.49,.67,69.54,.45,59.65,.23,60.57,.20,42.64,.28,35.44,.04,90.00
2016.10.31-02:00,.76,102.71,.86,100.45,.85,65.53,.99,71.42,.89,74.49,.94,70.03,.86,73.29,.66,74.08,.46,63.63,.20,58.73,.16,37.62,.25,30.98,.03,90.00
2016.10.31-03:00,.65,104.97,.75,102.98,.87,63.82,.98,69.61,.88,71.23,.94,70.52,.84,74.15,.63,78.79,.45,67.68,.18,57.19,.12,29.64,.23,25.76,.02,90.00
2016.10.31-04:00,.55,106.02,.64,103.60,.91,63.90,.99,69.05,.89,69.24,.95,71.76,.82,74.71,.58,82.51,.43,70.83,.16,56.60,.10,20.26,.21,21.85,.02,90.00
2016.10.31-05:00,.44,105.89,.53,101.79,.94,65.65,1.01,69.83,.92,68.77,.96,73.56,.82,75.00,.52,84.45,.40,72.78,.15,57.34,.09,14.50,.20,21.09,.02,90.00
2016.10.31-06:00,.35,102.46,.42,95.82,.96,68.61,1.03,71.55,.95,69.44,.98,75.69,.83,75.29,.48,84.10,.38,73.65,.16,59.28,.10,16.02,.21,23.61,.02,90.00
2016.10.31-07:00,.27,91.56,.34,83.40,.95,72.24,1.03,73.58,.98,70.60,1.01,77.73,.85,75.73,.45,81.53,.37,73.75,.17,61.25,.12,21.89,.23,27.90,.03,90.00
2016.10.31-08:00,.23,70.51,.32,65.13,.95,76.25,1.03,75.53,1.01,71.92,1.02,79.46,.88,76.32,.46,77.78,.37,73.33,.19,61.88,.15,27.41,.25,32.06,.04,90.00
2016.10.31-09:00,.26,51.88,.37,51.39,.95,80.48,1.03,77.08,1.04,73.18,1.03,80.73,.91,76.82,.48,73.98,.38,72.35,.21,60.85,.18,31.46,.28,35.54,.05,90.00
2016.10.31-10:00,.33,46.84,.47,47.58,.94,84.69,1.02,78.01,1.06,74.16,1.03,81.45,.93,77.05,.51,70.79,.39,70.98,.22,58.50,.20,34.03,.29,38.02,.05,90.00
2016.10.31-11:00,.42,50.11,.57,49.23,.93,88.39,1.02,78.20,1.07,74.66,1.02,81.65,.93,77.08,.54,68.68,.40,69.71,.22,55.52,.21,35.11,.29,39.12,.05,90.00
2016.10.31-12:00,.48,56.20,.66,52.33,.90,91.13,1.00,77.64,1.07,74.57,.99,81.38,.92,77.06,.56,67.79,.40,68.86,.21,52.49,.20,34.80,.27,38.64,.05,90.00
2016.10.31-13:00,.56,61.68,.74,55.68,.85,92.77,.97,76.49,1.06,74.14,.95,80.84,.90,77.17,.56,68.16,.39,68.69,.20,49.53,.18,32.74,.25,36.19,.04,90.00
2016.10.31-14:00,.67,65.35,.79,59.64,.79,93.26,.94,75.08,1.04,73.87,.90,80.21,.87,77.46,.56,69.48,.38,69.03,.18,46.68,.16,29.04,.22,31.99,.03,90.00
2016.10.31-15:00,.73,70.95,.84,64.28,.74,92.74,.94,73.99,1.04,74.19,.87,79.59,.84,77.82,.54,71.05,.37,69.18,.17,44.33,.13,24.41,.20,26.97,.02,90.00
2016.10.31-16:00,.75,78.14,.87,69.20,.69,92.00,.94,73.67,1.04,75.15,.85,78.78,.82,77.87,.51,72.22,.35,69.07,.16,43.98,.12,20.62,.18,22.58,.02,90.00
2016.10.31-17:00,.75,85.01,.86,74.07,.66,91.52,.95,74.10,1.06,76.48,.85,77.56,.81,77.27,.49,72.60,.35,69.27,.17,47.01,.11,20.16,.18,20.23,.01,90.00
2016.10.31-18:00,.72,91.36,.84,78.46,.62,91.15,.96,75.30,1.07,78.21,.86,76.31,.82,76.38,.49,72.14,.35,69.89,.19,52.00,.12,23.76,.19,20.57,.01,90.00
2016.10.31-19:00,.69,96.19,.80,81.82,.59,89.90,.98,77.04,1.10,80.21,.90,75.37,.86,75.75,.50,71.01,.35,70.29,.22,56.80,.14,29.83,.22,23.64,.02,90.00
2016.10.31-20:00,.66,98.57,.77,83.97,.58,87.10,1.01,78.88,1.12,82.14,.94,74.55,.89,75.31,.53,69.12,.36,69.53,.25,60.45,.17,35.73,.25,28.16,.03,90.00
2016.10.31-21:00,.66,99.94,.78,85.92,.60,83.77,1.03,80.63,1.13,83.74,.97,73.65,.93,74.81,.56,66.66,.37,67.30,.28,63.03,.20,40.06,.29,32.61,.04,90.00
2016.10.31-22:00,.67,102.18,.79,88.59,.62,80.99,1.05,82.04,1.13,84.75,1.00,72.51,.95,74.14,.61,64.37,.39,64.24,.29,64.71,.23,42.68,.32,36.21,.05,90.00
2016.10.31-23:00,.68,105.63,.80,92.19,.64,78.80,1.04,82.72,1.10,84.79,1.03,71.14,.97,73.39,.65,63.13,.41,61.48,.28,65.31,.24,43.76,.34,38.81,.05,90.00
2016.10.31-24:00,.69,109.88,.81,96.29,.64,76.69,1.01,82.33,1.05,83.59,1.04,69.78,.97,72.92,.70,63.75,.44,60.35,.26,64.40,.23,43.29,.33,40.25,.05,90.00
2016.11.01-01:00,.67,113.72,.79,99.79,.64,73.99,.97,80.72,1.00,81.08,1.05,68.79,.96,73.00,.73,66.57,.46,61.63,.23,61.61,.21,40.86,.31,40.09,.05,90.00
2016.11.01-02:00,.63,116.93,.74,101.99,.65,70.40,.93,78.18,.95,77.63,1.05,68.46,.94,73.67,.73,71.13,.47,64.82,.20,57.30,.18,36.00,.27,37.80,.04,90.00
2016.11.01-03:00,.56,119.57,.68,102.73,.67,66.71,.91,75.46,.93,74.06,1.05,68.97,.91,74.67,.71,76.41,.46,68.45,.17,52.83,.15,28.46,.23,33.09,.03,90.00
2016.11.01-04:00,.49,122.13,.60,102.02,.70,64.47,.92,73.77,.94,71.54,1.05,70.39,.89,75.67,.67,81.42,.44,71.20,.16,49.62,.12,19.87,.20,27.13,.02,90.00
2016.11.01-05:00,.42,125.33,.53,100.17,.74,64.57,.94,73.79,.97,70.62,1.07,72.43,.87,76.38,.60,85.30,.40,72.57,.15,48.37,.11,14.64,.18,22.86,.02,90.00
2016.11.01-06:00,.35,129.12,.45,97.55,.77,66.87,.96,75.19,1.00,70.96,1.08,74.62,.86,76.65,.53,87.06,.36,72.77,.15,49.33,.11,15.22,.19,21.85,.02,90.00
2016.11.01-07:00,.27,131.55,.36,92.82,.78,70.48,.97,77.30,1.03,72.00,1.10,76.68,.87,76.76,.49,86.02,.34,72.29,.17,51.92,.12,19.74,.21,23.31,.02,90.00
2016.11.01-08:00,.18,125.20,.29,80.31,.78,74.27,.97,79.37,1.05,73.24,1.11,78.53,.90,76.99,.47,82.51,.34,71.21,.19,54.46,.15,25.09,.23,26.01,.03,90.00
2016.11.01-09:00,.14,92.11,.28,60.57,.79,78.01,.96,80.95,1.07,74.46,1.12,80.17,.92,77.26,.48,77.84,.36,69.37,.21,55.54,.17,29.84,.26,29.33,.04,90.00
2016.11.01-10:00,.11,87.48,.33,47.94,.81,81.71,.95,81.68,1.09,75.42,1.12,81.53,.94,77.27,.50,73.17,.38,66.92,.22,54.49,.19,33.42,.28,32.69,.04,90.00
2016.11.01-11:00,.17,67.66,.40,44.42,.82,85.06,.94,81.17,1.11,75.84,1.11,82.48,.95,76.93,.53,69.59,.40,64.89,.23,52.01,.20,35.64,.29,35.55,.05,90.00
2016.11.01-12:00,.24,63.35,.47,45.57,.81,87.59,.92,79.13,1.11,75.51,1.08,82.86,.94,76.24,.56,67.56,.41,63.97,.23,48.79,.20,36.00,.28,37.24,.05,90.00
2016.11.01-13:00,.33,63.91,.53,48.64,.79,89.35,.90,75.90,1.10,74.79,1.03,82.85,.92,75.53,.57,67.13,.42,64.41,.22,45.55,.18,34.20,.26,37.32,.04,90.00
2016.11.01-14:00,.41,66.48,.59,52.49,.76,90.32,.89,72.19,1.09,74.18,.98,82.56,.89,75.05,.58,68.06,.43,66.20,.21,42.56,.16,29.48,.23,35.11,.03,90.00
2016.11.01-15:00,.48,69.50,.64,56.01,.71,90.30,.90,68.92,1.08,74.05,.93,81.96,.87,74.81,.57,69.82,.43,68.95,.20,40.76,.13,22.56,.20,30.81,.02,90.00
2016.11.01-16:00,.51,73.27,.67,59.39,.65,89.38,.92,67.11,1.07,74.67,.89,81.10,.85,74.76,.55,71.57,.41,71.79,.19,40.98,.11,15.86,.17,25.63,.01,90.00
2016.11.01-17:00,.52,77.84,.69,62.66,.60,87.41,.95,67.00,1.08,76.00,.87,79.97,.85,74.69,.53,72.54,.39,74.22,.19,44.56,.11,13.59,.17,21.74,.01,90.00
2016.11.01-18:00,.49,82.58,.69,65.20,.56,83.91,.99,68.21,1.08,77.79,.87,78.68,.86,74.49,.52,72.44,.37,76.11,.20,51.36,.11,17.30,.17,20.24,.01,90.00
2016.11.01-19:00,.46,86.27,.68,66.53,.52,78.23,1.01,70.48,1.09,80.06,.88,77.59,.88,74.45,.52,71.38,.36,76.97,.22,58.74,.13,25.02,.19,21.66,.01,90.00
2016.11.01-20:00,.43,87.34,.67,66.33,.51,70.20,1.04,73.28,1.09,82.47,.90,76.63,.91,74.59,.54,69.58,.35,76.01,.26,64.45,.15,32.90,.22,25.43,.02,90.00
2016.11.01-21:00,.42,86.06,.67,65.61,.54,62.29,1.06,76.06,1.08,84.53,.92,75.47,.94,74.66,.57,67.49,.35,73.05,.28,68.13,.19,38.68,.26,29.96,.03,90.00
2016.11.01-22:00,.43,85.19,.69,65.89,.60,57.13,1.07,78.45,1.06,85.80,.94,73.84,.96,74.46,.62,65.75,.37,68.84,.29,70.15,.22,42.31,.29,34.15,.04,90.00
2016.11.01-23:00,.46,85.54,.72,67.57,.67,54.96,1.07,80.10,1.03,85.82,.95,71.78,.98,73.96,.67,64.79,.39,64.45,.28,70.63,.23,44.23,.32,37.55,.04,90.00
2016.11.01-24:00,.49,86.25,.74,69.91,.74,54.61,1.04,80.70,.98,84.31,.97,69.64,.98,73.40,.71,64.99,.42,61.20,.26,69.32,.23,44.66,.32,39.97,.05,90.00
2016.11.02-01:00,.50,86.22,.73,71.76,.79,54.83,1.01,79.91,.93,81.13,.98,67.69,.97,72.97,.74,66.66,.45,60.25,.23,65.81,.22,43.37,.30,41.06,.05,90.00
2016.11.02-02:00,.48,84.60,.68,72.19,.82,55.35,.97,77.83,.89,76.42,.99,66.14,.95,72.75,.75,69.93,.46,62.01,.19,59.55,.19,39.63,.27,40.14,.04,90.00
2016.11.02-03:00,.46,80.15,.61,69.98,.83,56.34,.94,75.06,.87,70.95,1.00,65.25,.93,72.86,.74,74.49,.46,65.72,.16,50.58,.16,32.71,.23,36.57,.03,90.00
2016.11.02-04:00,.46,73.71,.55,65.77,.85,58.20,.93,72.42,.89,66.10,1.01,65.32,.90,73.40,.71,79.65,.45,69.93,.14,41.05,.13,23.44,.19,30.56,.02,90.00
2016.11.02-05:00,.46,71.61,.54,62.89,.88,61.51,.94,70.76,.93,63.29,1.03,66.62,.89,74.40,.65,84.37,.41,73.06,.14,34.48,.11,15.20,.17,23.92,.01,90.00
2016.11.02-06:00,.47,71.68,.56,62.38,.90,66.14,.95,70.29,.98,62.84,1.04,68.92,.88,75.55,.59,87.39,.37,74.09,.15,33.20,.11,11.95,.17,19.49,.01,90.00
2016.11.02-07:00,.47,70.71,.56,62.29,.90,71.10,.96,70.79,1.03,64.18,1.06,71.77,.88,76.72,.53,87.70,.34,72.69,.17,36.52,.12,14.82,.18,18.88,.01,90.00
2016.11.02-08:00,.46,66.55,.55,60.12,.88,75.28,.96,72.03,1.07,66.66,1.07,74.85,.90,77.97,.50,85.31,.33,69.71,.19,41.34,.13,20.86,.20,21.10,.02,90.00
2016.11.02-09:00,.47,59.48,.57,55.66,.85,77.85,.97,73.61,1.10,69.64,1.08,77.74,.91,79.07,.49,81.15,.34,66.50,.22,45.28,.16,26.99,.23,24.64,.02,90.00
2016.11.02-10:00,.51,53.57,.61,51.66,.82,78.63,.99,74.97,1.13,72.63,1.09,80.08,.92,79.70,.50,76.48,.37,63.70,.25,47.60,.18,32.08,.25,28.61,.03,90.00
2016.11.02-11:00,.54,52.14,.68,50.57,.80,77.91,1.00,75.57,1.15,75.23,1.08,81.63,.92,79.66,.52,72.35,.39,61.60,.27,48.41,.19,35.60,.26,32.27,.04,90.00
2016.11.02-12:00,.58,53.50,.75,52.36,.79,76.16,1.01,75.08,1.15,77.09,1.06,82.23,.91,78.93,.55,69.26,.41,60.35,.27,48.25,.19,37.48,.27,35.27,.04,90.00
2016.11.02-13:00,.62,56.60,.82,55.78,.77,73.92,1.01,73.63,1.13,78.06,1.01,81.97,.88,77.77,.57,67.66,.44,60.40,.26,47.75,.18,37.12,.25,37.13,.04,90.00
2016.11.02-14:00,.67,60.50,.87,59.81,.77,71.72,1.01,71.85,1.10,78.25,.96,81.11,.85,76.66,.58,67.93,.46,62.42,.25,47.42,.15,32.76,.22,36.63,.03,90.00
2016.11.02-15:00,.76,63.83,.90,63.29,.77,69.50,1.02,70.28,1.06,77.72,.92,79.80,.82,75.85,.59,69.96,.47,66.38,.23,47.98,.13,23.43,.19,33.02,.02,90.00